User: anonymous   Login
Location: Unspecified
(0.0000°N, 0.0000°E)
Time: 08:06:55
(UTC+00:00)
Language:

Nimbus 4 - Orbit

View from above orbital plane
View from above orbital plane
View from above satellite
View from above satellite

Ground track
Ground track

The orbit data is extracted from the following two-line orbital elements,

1  4362U 70025A   18232.73924969 -.00000051 +00000-0 -10647-4 0  9994
2  4362 099.9891 139.7462 0008106 116.8119 266.4527 13.44596294372816
Epoch (UTC): 20 August 2018 17:44:31
Eccentricity: 0.0008106
inclination: 99.9891°
perigee height: 1086 km
apogee height: 1098 km
right ascension of ascending node: 139.7462°
argument of perigee: 116.8119°
revolutions per day: 13.44596294
mean anomaly at epoch: 266.4527°
orbit number at epoch: 37281

The dashed part of the orbit path shows where the satellite is in the earth's shadow,  

DLR